QPF
0.01 0.01 0.01 0.02 0.03 0.02 0.02 0.01 0.01 0.00 0.00 0.00 0.00 0.00 0.00 0.00 0.00 0.00 0.00 0.00 0.00 0.01 0.00 0.00 0.00 0.00 0.01 0.00 0.00 0.01 0.02 0.02 0.02 0.02 0.01 0.01 0.01 0.01 0.01 0.01 0.01 0.02 0.01
0.00 0.00 0.01 0.01 0.02 0.03 0.02 0.01 0.01 0.00 0.00 0.00 0.00 0.00 0.00 0.00 0.00 0.00 0.00 0.00 0.00 0.00 0.00 0.00 0.00 0.00 0.00 0.00 0.00 0.01 0.01 0.01 0.01 0.01 0.01 0.01 0.00 0.00 0.01 0.00 0.00 0.01 0.01
0.00 0.00 0.00 0.00 0.01 0.02 0.02 0.02 0.01 0.01 0.01 0.00 0.00 0.00 0.00 0.00 0.00 0.00 0.00 0.00 0.00 0.00 0.00 0.00 0.00 0.00 0.00 0.01 0.01 0.00 0.01 0.01 0.01 0.01 0.01 0.01 0.01 0.01 0.02 0.01 0.00 0.01 0.00
0.00 0.00 0.00 0.00 0.00 0.00 0.01 0.02 0.02 0.01 0.01 0.00 0.01 0.01 0.01 0.00 0.00 0.00 0.00 0.00 0.00 0.00 0.00 0.00 0.00 0.00 0.00 0.01 0.01 0.01 0.01 0.01 0.01 0.01 0.01 0.01 0.01 0.01 0.02 0.02 0.02 0.02 0.01
0.00 0.00 0.00 0.00 0.00 0.00 0.00 0.00 0.01 0.03 0.02 0.01 0.01 0.01 0.01 0.01 0.00 0.00 0.00 0.00 0.00 0.00 0.00 0.00 0.00 0.00 0.00 0.00 0.00 0.01 0.01 0.01 0.01 0.01 0.01 0.01 0.01 0.02 0.02 0.02 0.03 0.02 0.02
0.00 0.00 0.00 0.00 0.00 0.00 0.00 0.00 0.00 0.01 0.02 0.02 0.02 0.01 0.01 0.01 0.01 0.00 0.00 0.01 0.00 0.00 0.00 0.00 0.00 0.00 0.00 0.00 0.00 0.00 0.01 0.01 0.01 0.01 0.01 0.01 0.02 0.02 0.02 0.02 0.02 0.01 0.01
0.00 0.00 0.00 0.00 0.00 0.01 0.01 0.01 0.00 0.00 0.01 0.02 0.02 0.02 0.02 0.01 0.02 0.01 0.01 0.00 0.00 0.00 0.00 0.00 0.00 0.00 0.00 0.01 0.01 0.01 0.01 0.01 0.01 0.01 0.01 0.00 0.01 0.01 0.01 0.02 0.02 0.02 0.02
0.01 0.00 0.00 0.00 0.00 0.01 0.01 0.01 0.01 0.01 0.01 0.01 0.01 0.01 0.01 0.01 0.02 0.02 0.01 0.01 0.00 0.00 0.00 0.00 0.00 0.00 0.00 0.00 0.01 0.02 0.02 0.01 0.01 0.01 0.01 0.00 0.00 0.01 0.01 0.01 0.01 0.01 0.01
0.01 0.00 0.00 0.00 0.00 0.01 0.01 0.02 0.02 0.02 0.02 0.01 0.00 0.00 0.01 0.01 0.01 0.01 0.01 0.01 0.00 0.00 0.00 0.00 0.00 0.00 0.00 0.01 0.01 0.01 0.02 0.01 0.01 0.01 0.01 0.01 0.00 0.00 0.00 0.01 0.01 0.01 0.01
0.00 0.00 0.00 0.00 0.01 0.01 0.01 0.01 0.02 0.02 0.02 0.01 0.01 0.00 0.00 0.01 0.01 0.01 0.01 0.01 0.00 0.00 0.00 0.01 0.01 0.01 0.01 0.01 0.01 0.01 0.01 0.01 0.01 0.01 0.01 0.01 0.00 0.00 0.00 0.01 0.01 0.01 0.01
0.00 0.00 0.00 0.00 0.01 0.01 0.01 0.01 0.02 0.02 0.02 0.01 0.01 0.01 0.01 0.01 0.01 0.01 0.01 0.01 0.00 0.00 0.01 0.00 0.00 0.01 0.01 0.01 0.01 0.01 0.01 0.01 0.01 0.01 0.01 0.01 0.01 0.00 0.01 0.01 0.01 0.01 0.01
0.01 0.01 0.01 0.01 0.01 0.01 0.02 0.02 0.02 0.02 0.02 0.01 0.01 0.01 0.01 0.01 0.00 0.00 0.01 0.01 0.00 0.01 0.01 0.01 0.00 0.01 0.01 0.01 0.01 0.01 0.01 0.01 0.01 0.01 0.01 0.01 0.01 0.00 0.00 0.00 0.00 0.00 0.00
0.01 0.01 0.01 0.01 0.01 0.01 0.02 0.02 0.02 0.02 0.02 0.02 0.02 0.01 0.01 0.01 0.01 0.01 0.01 0.01 0.01 0.01 0.02 0.02 0.01 0.01 0.01 0.01 0.02 0.02 0.02 0.02 0.02 0.02 0.01 0.01 0.01 0.01 0.01 0.00 0.00 0.00 0.00
0.01 0.01 0.00 0.00 0.00 0.00 0.01 0.02 0.02 0.02 0.02 0.02 0.02 0.01 0.01 0.01 0.01 0.01 0.01 0.02 0.03 0.02 0.02 0.02 0.02 0.03 0.03 0.02 0.02 0.03 0.03 0.03 0.03 0.03 0.02 0.01 0.01 0.01 0.01 0.01 0.01 0.00 0.00
0.01 0.01 0.01 0.01 0.01 0.00 0.01 0.01 0.02 0.02 0.02 0.02 0.02 0.01 0.02 0.01 0.01 0.02 0.03 0.03 0.02 0.01 0.01 0.01 0.01 0.01 0.02 0.02 0.02 0.02 0.02 0.02 0.03 0.03 0.04 0.03 0.02 0.02 0.01 0.02 0.02 0.01 0.01
0.01 0.01 0.01 0.01 0.01 0.01 0.00 0.01 0.01 0.02 0.02 0.03 0.03 0.02 0.02 0.02 0.03 0.04 0.04 0.03 0.02 0.01 0.01 0.01 0.01 0.01 0.01 0.01 0.02 0.02 0.02 0.02 0.03 0.04 0.05 0.05 0.04 0.03 0.02 0.02 0.02 0.02 0.01
0.00 0.01 0.00 0.00 0.00 0.01 0.01 0.00 0.01 0.01 0.02 0.02 0.02 0.02 0.03 0.04 0.05 0.04 0.02 0.02 0.02 0.01 0.01 0.01 0.01 0.01 0.01 0.01 0.01 0.02 0.02 0.03 0.04 0.05 0.05 0.06 0.06 0.06 0.05 0.04 0.03 0.02 0.02
0.00 0.00 0.00 0.00 0.00 0.00 0.01 0.01 0.01 0.01 0.01 0.01 0.02 0.03 0.04 0.04 0.03 0.02 0.02 0.01 0.01 0.01 0.01 0.01 0.01 0.01 0.01 0.01 0.01 0.01 0.02 0.03 0.04 0.05 0.06 0.05 0.05 0.05 0.05 0.04 0.04 0.03 0.03
0.00 0.00 0.01 0.00 0.01 0.01 0.01 0.01 0.01 0.01 0.01 0.02 0.02 0.02 0.02 0.01 0.01 0.01 0.01 0.01 0.01 0.01 0.02 0.01 0.01 0.01 0.01 0.01 0.01 0.01 0.02 0.03 0.03 0.04 0.04 0.03 0.03 0.03 0.03 0.03 0.03 0.03 0.03
0.00 0.01 0.01 0.01 0.01 0.01 0.01 0.01 0.00 0.00 0.01 0.01 0.01 0.01 0.01 0.01 0.01 0.01 0.01 0.01 0.01 0.01 0.02 0.03 0.03 0.02 0.02 0.02 0.01 0.01 0.01 0.02 0.03 0.03 0.03 0.03 0.02 0.02 0.02 0.02 0.02 0.03 0.02
0.01 0.01 0.01 0.01 0.00 0.01 0.01 0.01 0.01 0.00 0.00 0.00 0.00 0.00 0.01 0.01 0.01 0.01 0.01 0.01 0.01 0.01 0.01 0.02 0.03 0.04 0.03 0.03 0.02 0.02 0.02 0.02 0.02 0.02 0.02 0.02 0.02 0.02 0.02 0.02 0.02 0.02 0.03
0.01 0.01 0.01 0.00 0.01 0.01 0.01 0.00 0.00 0.01 0.01 0.00 0.00 0.00 0.01 0.01 0.01 0.01 0.01 0.01 0.01 0.01 0.02 0.02 0.02 0.03 0.04 0.04 0.03 0.02 0.02 0.02 0.02 0.02 0.02 0.01 0.02 0.02 0.02 0.02 0.02 0.02 0.02
0.02 0.02 0.01 0.01 0.01 0.01 0.01 0.01 0.01 0.01 0.01 0.01 0.01 0.01 0.01 0.01 0.01 0.01 0.01 0.01 0.01 0.02 0.02 0.03 0.03 0.03 0.03 0.03 0.03 0.02 0.02 0.02 0.02 0.02 0.02 0.02 0.02 0.02 0.02 0.02 0.02 0.02 0.02
0.02 0.02 0.02 0.02 0.01 0.01 0.01 0.01 0.01 0.01 0.01 0.01 0.01 0.01 0.01 0.01 0.01 0.01 0.02 0.02 0.02 0.02 0.03 0.03 0.03 0.03 0.02 0.02 0.01 0.01 0.01 0.01 0.01 0.01 0.01 0.01 0.02 0.02 0.02 0.03 0.03 0.03 0.03
0.02 0.02 0.02 0.02 0.02 0.01 0.01 0.01 0.01 0.01 0.01 0.01 0.01 0.01 0.01 0.01 0.01 0.02 0.02 0.02 0.02 0.03 0.03 0.03 0.03 0.03 0.03 0.02 0.01 0.01 0.01 0.02 0.01 0.01 0.01 0.01 0.02 0.02 0.03 0.03 0.02 0.02 0.02
0.02 0.02 0.02 0.02 0.02 0.02 0.02 0.02 0.02 0.01 0.01 0.01 0.01 0.01 0.01 0.02 0.02 0.02 0.02 0.02 0.02 0.02 0.02 0.02 0.02 0.02 0.02 0.02 0.01 0.01 0.01 0.01 0.01 0.01 0.01 0.01 0.02 0.02 0.02 0.02 0.01 0.01 0.01
MSLP
1015.05 1015.31 1015.56 1015.75 1015.86 1015.87 1015.79 1015.65 1015.48 1015.32 1015.21 1015.16 1015.18 1015.26 1015.38 1015.51 1015.63 1015.72 1015.80 1015.85 1015.91 1015.99 1016.11 1016.25 1016.42 1016.60 1016.76 1016.87 1016.91 1016.87 1016.74 1016.54 1016.28 1015.97 1015.65 1015.33 1015.04 1014.77 1014.54 1014.35 1014.21 1014.11 1014.06
1015.07 1015.32 1015.56 1015.74 1015.84 1015.86 1015.79 1015.67 1015.52 1015.39 1015.30 1015.28 1015.31 1015.40 1015.52 1015.63 1015.72 1015.79 1015.81 1015.81 1015.81 1015.82 1015.87 1015.96 1016.08 1016.23 1016.38 1016.52 1016.60 1016.63 1016.57 1016.45 1016.25 1016.00 1015.70 1015.39 1015.07 1014.75 1014.45 1014.18 1013.95 1013.77 1013.63
1015.25 1015.51 1015.75 1015.94 1016.05 1016.08 1016.04 1015.95 1015.84 1015.75 1015.69 1015.69 1015.73 1015.82 1015.92 1016.00 1016.06 1016.07 1016.04 1015.97 1015.90 1015.84 1015.81 1015.83 1015.90 1016.01 1016.14 1016.27 1016.37 1016.42 1016.41 1016.32 1016.16 1015.94 1015.66 1015.33 1014.99 1014.63 1014.28 1013.95 1013.66 1013.40 1013.19
1015.58 1015.87 1016.13 1016.34 1016.47 1016.53 1016.52 1016.47 1016.40 1016.34 1016.32 1016.34 1016.39 1016.47 1016.54 1016.59 1016.60 1016.55 1016.46 1016.33 1016.19 1016.06 1015.97 1015.93 1015.94 1016.00 1016.09 1016.19 1016.26 1016.30 1016.28 1016.19 1016.02 1015.79 1015.50 1015.16 1014.79 1014.40 1014.02 1013.65 1013.30 1013.00 1012.73
1016.05 1016.37 1016.66 1016.89 1017.05 1017.14 1017.16 1017.15 1017.12 1017.10 1017.11 1017.14 1017.20 1017.26 1017.31 1017.32 1017.28 1017.19 1017.04 1016.86 1016.67 1016.49 1016.35 1016.25 1016.21 1016.21 1016.24 1016.28 1016.31 1016.29 1016.21 1016.07 1015.86 1015.59 1015.26 1014.89 1014.49 1014.08 1013.67 1013.28 1012.92 1012.59 1012.29
1016.63 1016.98 1017.29 1017.54 1017.72 1017.83 1017.89 1017.91 1017.92 1017.94 1017.97 1018.02 1018.08 1018.13 1018.16 1018.14 1018.06 1017.93 1017.75 1017.53 1017.31 1017.10 1016.92 1016.79 1016.69 1016.64 1016.61 1016.57 1016.51 1016.41 1016.25 1016.02 1015.73 1015.39 1015.00 1014.58 1014.15 1013.72 1013.31 1012.91 1012.55 1012.21 1011.91
1017.26 1017.64 1017.96 1018.22 1018.42 1018.55 1018.63 1018.68 1018.73 1018.77 1018.83 1018.89 1018.96 1019.00 1019.02 1018.98 1018.88 1018.73 1018.53 1018.30 1018.07 1017.84 1017.65 1017.48 1017.35 1017.25 1017.14 1017.02 1016.87 1016.66 1016.39 1016.06 1015.68 1015.25 1014.79 1014.33 1013.87 1013.43 1013.01 1012.63 1012.27 1011.94 1011.63
1017.92 1018.30 1018.63 1018.90 1019.09 1019.24 1019.34 1019.42 1019.49 1019.56 1019.65 1019.73 1019.80 1019.85 1019.86 1019.82 1019.71 1019.56 1019.36 1019.13 1018.90 1018.67 1018.47 1018.29 1018.13 1017.97 1017.80 1017.61 1017.36 1017.05 1016.68 1016.24 1015.77 1015.26 1014.74 1014.23 1013.74 1013.29 1012.88 1012.51 1012.16 1011.84 1011.52
1018.56 1018.94 1019.27 1019.53 1019.73 1019.88 1020.00 1020.11 1020.21 1020.31 1020.42 1020.53 1020.62 1020.68 1020.70 1020.65 1020.55 1020.40 1020.21 1019.98 1019.76 1019.53 1019.33 1019.13 1018.95 1018.75 1018.53 1018.26 1017.94 1017.55 1017.09 1016.58 1016.03 1015.46 1014.90 1014.36 1013.85 1013.39 1012.98 1012.61 1012.26 1011.93 1011.60
1019.15 1019.54 1019.86 1020.12 1020.32 1020.49 1020.63 1020.77 1020.90 1021.04 1021.19 1021.32 1021.44 1021.51 1021.54 1021.50 1021.41 1021.25 1021.06 1020.84 1020.61 1020.38 1020.17 1019.96 1019.75 1019.52 1019.26 1018.95 1018.58 1018.14 1017.63 1017.08 1016.49 1015.89 1015.29 1014.74 1014.22 1013.75 1013.33 1012.95 1012.58 1012.23 1011.86
1019.68 1020.06 1020.39 1020.65 1020.88 1021.07 1021.24 1021.42 1021.59 1021.78 1021.96 1022.13 1022.27 1022.36 1022.39 1022.36 1022.26 1022.10 1021.90 1021.67 1021.42 1021.18 1020.94 1020.72 1020.48 1020.23 1019.95 1019.62 1019.23 1018.77 1018.26 1017.70 1017.10 1016.50 1015.91 1015.35 1014.82 1014.34 1013.90 1013.49 1013.08 1012.68 1012.25
1020.12 1020.52 1020.85 1021.14 1021.40 1021.62 1021.84 1022.07 1022.29 1022.52 1022.75 1022.95 1023.11 1023.22 1023.26 1023.22 1023.10 1022.92 1022.70 1022.44 1022.16 1021.89 1021.63 1021.37 1021.12 1020.86 1020.57 1020.24 1019.86 1019.42 1018.93 1018.40 1017.84 1017.26 1016.68 1016.13 1015.60 1015.10 1014.62 1014.16 1013.70 1013.22 1012.72
1020.47 1020.88 1021.25 1021.58 1021.87 1022.15 1022.43 1022.70 1022.98 1023.26 1023.52 1023.76 1023.94 1024.05 1024.08 1024.03 1023.89 1023.68 1023.42 1023.12 1022.81 1022.50 1022.20 1021.92 1021.65 1021.39 1021.11 1020.80 1020.46 1020.06 1019.62 1019.14 1018.62 1018.08 1017.54 1016.99 1016.45 1015.92 1015.40 1014.88 1014.34 1013.79 1013.21
1020.73 1021.17 1021.57 1021.95 1022.29 1022.63 1022.96 1023.29 1023.62 1023.94 1024.24 1024.49 1024.68 1024.79 1024.81 1024.74 1024.58 1024.33 1024.03 1023.70 1023.35 1023.00 1022.68 1022.38 1022.10 1021.84 1021.58 1021.31 1021.01 1020.67 1020.29 1019.87 1019.41 1018.91 1018.38 1017.84 1017.28 1016.72 1016.14 1015.55 1014.94 1014.31 1013.65
1020.89 1021.37 1021.82 1022.24 1022.64 1023.03 1023.42 1023.80 1024.17 1024.52 1024.83 1025.10 1025.29 1025.39 1025.40 1025.31 1025.12 1024.85 1024.52 1024.15 1023.78 1023.41 1023.07 1022.76 1022.49 1022.25 1022.02 1021.78 1021.53 1021.25 1020.93 1020.55 1020.13 1019.66 1019.14 1018.59 1018.01 1017.40 1016.77 1016.11 1015.44 1014.74 1014.02
1020.99 1021.50 1021.99 1022.46 1022.91 1023.34 1023.77 1024.18 1024.58 1024.94 1025.27 1025.53 1025.72 1025.81 1025.80 1025.70 1025.50 1025.22 1024.88 1024.51 1024.13 1023.77 1023.43 1023.14 1022.88 1022.66 1022.46 1022.26 1022.05 1021.81 1021.52 1021.17 1020.76 1020.29 1019.77 1019.19 1018.57 1017.91 1017.23 1016.52 1015.79 1015.05 1014.29
1021.05 1021.59 1022.11 1022.61 1023.10 1023.56 1024.01 1024.44 1024.84 1025.21 1025.53 1025.78 1025.95 1026.04 1026.03 1025.92 1025.73 1025.46 1025.15 1024.80 1024.45 1024.11 1023.80 1023.54 1023.31 1023.11 1022.94 1022.76 1022.57 1022.34 1022.05 1021.70 1021.28 1020.79 1020.22 1019.60 1018.94 1018.23 1017.50 1016.75 1015.99 1015.22 1014.45
1021.09 1021.66 1022.20 1022.73 1023.23 1023.71 1024.16 1024.59 1024.99 1025.34 1025.64 1025.88 1026.04 1026.12 1026.11 1026.02 1025.86 1025.63 1025.36 1025.06 1024.76 1024.47 1024.21 1023.99 1023.79 1023.62 1023.46 1023.29 1023.09 1022.84 1022.52 1022.13 1021.66 1021.12 1020.50 1019.82 1019.10 1018.34 1017.57 1016.80 1016.02 1015.26 1014.49
1021.15 1021.73 1022.29 1022.83 1023.34 1023.82 1024.26 1024.67 1025.05 1025.38 1025.66 1025.88 1026.03 1026.11 1026.13 1026.07 1025.95 1025.78 1025.57 1025.34 1025.11 1024.88 1024.68 1024.49 1024.33 1024.17 1024.00 1023.81 1023.57 1023.27 1022.90 1022.44 1021.89 1021.27 1020.57 1019.83 1019.04 1018.25 1017.45 1016.66 1015.89 1015.14 1014.40
1021.24 1021.82 1022.39 1022.93 1023.44 1023.91 1024.35 1024.74 1025.09 1025.39 1025.65 1025.85 1026.00 1026.09 1026.13 1026.11 1026.05 1025.94 1025.81 1025.65 1025.49 1025.33 1025.17 1025.02 1024.87 1024.70 1024.51 1024.27 1023.98 1023.60 1023.14 1022.59 1021.95 1021.23 1020.45 1019.63 1018.79 1017.95 1017.13 1016.33 1015.58 1014.85 1014.16
1021.34 1021.94 1022.52 1023.06 1023.57 1024.03 1024.45 1024.82 1025.14 1025.42 1025.66 1025.85 1026.00 1026.11 1026.18 1026.20 1026.19 1026.15 1026.08 1026.00 1025.89 1025.78 1025.66 1025.52 1025.36 1025.16 1024.92 1024.62 1024.24 1023.77 1023.21 1022.55 1021.81 1021.00 1020.13 1019.24 1018.34 1017.47 1016.63 1015.84 1015.10 1014.40 1013.75
1021.45 1022.07 1022.66 1023.21 1023.72 1024.17 1024.58 1024.93 1025.24 1025.50 1025.73 1025.92 1026.08 1026.20 1026.29 1026.36 1026.39 1026.40 1026.38 1026.34 1026.27 1026.18 1026.07 1025.92 1025.73 1025.48 1025.17 1024.79 1024.32 1023.75 1023.09 1022.33 1021.49 1020.59 1019.65 1018.70 1017.75 1016.84 1015.99 1015.20 1014.47 1013.81 1013.18
1021.55 1022.19 1022.80 1023.36 1023.88 1024.33 1024.73 1025.08 1025.38 1025.64 1025.86 1026.05 1026.21 1026.35 1026.47 1026.56 1026.62 1026.66 1026.67 1026.64 1026.59 1026.49 1026.35 1026.16 1025.92 1025.61 1025.23 1024.76 1024.19 1023.53 1022.78 1021.94 1021.03 1020.06 1019.06 1018.05 1017.07 1016.14 1015.27 1014.48 1013.76 1013.12 1012.52
1021.61 1022.28 1022.91 1023.49 1024.02 1024.48 1024.89 1025.24 1025.54 1025.80 1026.03 1026.22 1026.39 1026.54 1026.67 1026.78 1026.85 1026.90 1026.91 1026.87 1026.80 1026.67 1026.49 1026.25 1025.94 1025.56 1025.10 1024.55 1023.91 1023.17 1022.35 1021.45 1020.49 1019.48 1018.44 1017.41 1016.41 1015.46 1014.58 1013.78 1013.06 1012.42 1011.83
1021.62 1022.32 1022.97 1023.57 1024.12 1024.60 1025.02 1025.38 1025.69 1025.96 1026.19 1026.40 1026.58 1026.73 1026.87 1026.97 1027.05 1027.09 1027.08 1027.02 1026.90 1026.73 1026.49 1026.19 1025.81 1025.37 1024.84 1024.23 1023.53 1022.75 1021.89 1020.96 1019.98 1018.95 1017.90 1016.86 1015.85 1014.89 1014.00 1013.19 1012.47 1011.82 1011.23
1021.58 1022.30 1022.98 1023.60 1024.16 1024.66 1025.09 1025.47 1025.79 1026.08 1026.32 1026.54 1026.73 1026.90 1027.03 1027.14 1027.20 1027.22 1027.19 1027.09 1026.93 1026.71 1026.41 1026.05 1025.62 1025.11 1024.54 1023.89 1023.16 1022.36 1021.50 1020.57 1019.59 1018.57 1017.54 1016.50 1015.50 1014.53 1013.64 1012.81 1012.07 1011.41 1010.81
Thickness
5719 5718 5716 5714 5713 5712 5710 5710 5709 5708 5707 5706 5705 5704 5702 5701 5700 5698 5696 5695 5693 5692 5691 5690 5688 5687 5684 5683 5682 5679 5677 5673 5666 5667 5668 5668 5666 5664 5663 5662 5660 5659 5657
5719 5718 5715 5712 5711 5709 5708 5707 5707 5706 5705 5704 5703 5701 5699 5698 5696 5694 5693 5691 5689 5688 5687 5686 5684 5683 5681 5679 5677 5675 5673 5671 5666 5661 5662 5662 5661 5660 5659 5658 5657 5655 5654
5719 5716 5713 5710 5708 5706 5705 5705 5704 5703 5702 5700 5699 5697 5696 5695 5693 5692 5690 5688 5687 5685 5684 5682 5680 5678 5676 5674 5673 5671 5669 5669 5665 5660 5657 5657 5656 5656 5654 5653 5653 5651 5650
5717 5713 5710 5707 5705 5704 5703 5703 5702 5700 5699 5697 5696 5694 5693 5691 5689 5688 5686 5685 5683 5682 5680 5679 5677 5674 5672 5670 5668 5666 5665 5662 5660 5657 5653 5652 5651 5651 5648 5646 5645 5645 5644
5715 5711 5708 5706 5704 5702 5701 5700 5699 5697 5696 5694 5692 5690 5689 5687 5685 5683 5682 5681 5679 5678 5676 5675 5673 5671 5669 5667 5664 5661 5659 5656 5654 5651 5648 5646 5644 5643 5641 5641 5639 5638 5639
5714 5710 5707 5705 5702 5699 5698 5696 5694 5693 5692 5691 5689 5687 5684 5683 5681 5679 5678 5676 5676 5674 5672 5671 5669 5667 5665 5663 5661 5659 5656 5652 5648 5645 5643 5640 5639 5638 5637 5636 5633 5631 5629
5713 5709 5706 5703 5699 5697 5695 5693 5690 5689 5688 5686 5685 5683 5680 5678 5677 5675 5674 5672 5671 5670 5668 5666 5666 5664 5661 5658 5656 5655 5652 5650 5647 5642 5638 5636 5635 5634 5632 5629 5627 5625 5623
5711 5707 5704 5701 5697 5695 5692 5690 5688 5686 5684 5682 5681 5680 5677 5675 5673 5672 5670 5668 5667 5666 5664 5662 5660 5658 5656 5654 5652 5650 5648 5645 5643 5640 5637 5636 5634 5631 5628 5625 5623 5621 5621
5709 5706 5703 5700 5696 5692 5689 5687 5686 5684 5681 5679 5678 5676 5673 5671 5669 5668 5666 5663 5662 5661 5660 5658 5656 5653 5652 5650 5647 5644 5642 5640 5639 5637 5635 5632 5630 5627 5624 5620 5616 5613 5611
5708 5705 5703 5699 5695 5691 5688 5686 5684 5682 5679 5677 5675 5673 5671 5668 5666 5664 5661 5659 5656 5656 5655 5653 5652 5649 5647 5644 5641 5638 5634 5633 5633 5631 5629 5627 5624 5622 5619 5615 5611 5606 5603
5708 5704 5700 5697 5693 5690 5687 5684 5681 5679 5676 5673 5671 5670 5668 5665 5663 5660 5657 5654 5652 5651 5649 5648 5646 5645 5642 5639 5636 5633 5631 5629 5627 5625 5622 5620 5618 5616 5613 5610 5607 5603 5598
5704 5700 5697 5694 5691 5688 5683 5680 5678 5675 5671 5669 5667 5664 5663 5662 5659 5656 5653 5651 5649 5646 5644 5643 5641 5639 5636 5633 5630 5628 5626 5623 5620 5617 5615 5613 5611 5609 5607 5605 5602 5599 5596
5699 5695 5693 5690 5687 5685 5680 5676 5673 5670 5666 5664 5662 5659 5658 5657 5654 5652 5649 5646 5644 5642 5640 5639 5636 5634 5631 5628 5625 5623 5620 5616 5613 5610 5608 5606 5606 5604 5602 5599 5596 5593 5590
5693 5691 5688 5685 5682 5680 5677 5673 5669 5666 5663 5661 5658 5655 5653 5651 5649 5647 5644 5641 5639 5636 5634 5632 5630 5628 5625 5622 5620 5617 5614 5611 5608 5605 5602 5601 5599 5596 5593 5590 5587 5584 5580
5689 5686 5684 5681 5678 5674 5671 5669 5667 5665 5663 5660 5657 5654 5650 5647 5646 5645 5641 5637 5634 5631 5629 5626 5623 5620 5617 5615 5613 5611 5608 5605 5602 5599 5596 5593 5591 5588 5585 5582 5579 5575 5571
5683 5681 5679 5676 5673 5670 5666 5662 5662 5660 5659 5657 5655 5651 5648 5645 5642 5639 5636 5634 5630 5627 5623 5619 5617 5614 5612 5609 5606 5604 5602 5598 5596 5592 5589 5586 5583 5579 5576 5574 5570 5565 5562
5678 5676 5674 5671 5669 5665 5662 5658 5654 5652 5651 5650 5648 5645 5642 5639 5636 5633 5630 5627 5623 5620 5615 5612 5610 5608 5606 5603 5600 5597 5594 5591 5588 5585 5581 5578 5574 5571 5567 5563 5560 5556 5553
5673 5671 5669 5666 5664 5661 5659 5656 5652 5647 5643 5641 5640 5638 5636 5632 5629 5626 5622 5618 5613 5611 5608 5606 5604 5602 5599 5596 5593 5590 5586 5583 5579 5576 5572 5568 5564 5560 5557 5553 5550 5547 5544
5666 5664 5663 5661 5658 5656 5654 5650 5647 5643 5639 5636 5633 5630 5628 5624 5620 5617 5614 5610 5607 5605 5603 5600 5597 5595 5592 5589 5586 5582 5578 5574 5570 5566 5562 5558 5555 5550 5547 5544 5540 5537 5533
5658 5658 5656 5653 5651 5649 5646 5643 5640 5637 5633 5630 5627 5624 5620 5615 5611 5607 5605 5604 5602 5599 5597 5594 5590 5587 5584 5580 5577 5573 5569 5565 5561 5557 5553 5549 5545 5541 5538 5534 5531 5527 5523
5649 5648 5647 5645 5643 5641 5639 5636 5633 5631 5627 5624 5621 5619 5614 5610 5607 5603 5599 5597 5595 5593 5590 5586 5582 5579 5575 5571 5568 5564 5560 5556 5551 5547 5543 5539 5535 5531 5528 5524 5521 5516 5513
5640 5639 5637 5636 5634 5633 5631 5629 5626 5623 5620 5617 5613 5610 5606 5603 5600 5597 5594 5592 5589 5586 5583 5578 5574 5571 5567 5563 5559 5554 5550 5546 5542 5537 5533 5529 5525 5521 5517 5514 5510 5506 5502
5630 5629 5627 5626 5624 5623 5621 5619 5617 5614 5611 5609 5605 5602 5598 5595 5592 5589 5586 5583 5580 5577 5573 5569 5565 5561 5557 5554 5549 5544 5539 5535 5531 5527 5523 5519 5515 5511 5507 5503 5500 5496 5492
5619 5618 5616 5614 5613 5612 5610 5609 5607 5605 5602 5600 5596 5593 5590 5587 5584 5581 5578 5574 5570 5566 5563 5559 5555 5551 5547 5543 5539 5534 5529 5525 5520 5517 5512 5508 5505 5501 5497 5493 5490 5486 5482
5607 5606 5605 5603 5602 5601 5599 5598 5596 5595 5592 5590 5587 5584 5581 5578 5575 5571 5568 5564 5560 5556 5553 5548 5544 5541 5537 5533 5528 5523 5519 5515 5510 5506 5502 5499 5495 5491 5487 5483 5479 5475 5472
5595 5594 5593 5593 5591 5590 5588 5586 5584 5583 5581 5579 5576 5573 5570 5567 5563 5560 5557 5553 5550 5546 5542 5538 5534 5530 5526 5522 5518 5513 5509 5505 5501 5497 5492 5488 5485 5481 5477 5473 5469 5465 5461